Regional Weather Roundup
Issued by NWS Wilmington, NC

Home | Current Version | Previous Version | Text Only | Print | Product List | Glossary On
Versions: 1 2 3 4 5 6 7 8 9 10 11 12 13 14 15 16 17 18 19 20 21 22 23 24 25 26 27 28 29 30 31 32 33 34 35 36 37 38 39 40 41 42 43 44 45 46 47 48 49 50
000
ASUS42 KILM 221210
RWRILM
RWRILM
REGIONAL HOURLY WEATHER ROUNDUP
NATIONAL WEATHER SERVICE WILMINGTON NC
800 AM EDT TUE JUL 22 2014

NOTE: "FAIR" INDICATES FEW OR NO CLOUDS BELOW 12,000 FEET WITH NO
SIGNIFICANT WEATHER AND/OR OBSTRUCTIONS TO VISIBILITY.

...............WFO WILMINGTON COUNTY WARNING AREA...............

......COASTAL NC AND SC COUNTIES......

CITY           SKY/WX    TMP DP  RH WIND       PRES   REMARKS
WILMINGTON     MOSUNNY   74  73  97 NE7       30.11R
SOUTHPORT      MOSUNNY   76  74  95 CALM      30.11R
N MYRTLE BEACH FOG       74  73  97 NE6       30.11R VSB 1
MYRTLE BEACH   FOG       73  72  94 VRB6      30.11R VSB 1

......INLAND NC AND SC COUNTIES.......

CITY           SKY/WX    TMP DP  RH WIND       PRES   REMARKS
LUMBERTON      FOG       73  72  96 NE6       30.13R VSB 1/2
ELIZABETHTOWN  FOG       74  74 100 CALM      30.13R VSB 3/4
WHITEVILLE     FOG       74  73  97 NE6       30.12R VSB 1/2
FLORENCE       CLOUDY    73  72  96 NE8       30.13R FOG
DARLINGTON     CLOUDY    73  70  88 NE5       30.15R VSB 1/4

....................REST OF NORTH CAROLINA......................

.........EASTERN NC.........

CITY           SKY/WX    TMP DP  RH WIND       PRES   REMARKS
CAPE HATTERAS  CLOUDY    76  75  97 E6        30.15R
JACKSONVILLE   CLOUDY    73  72  94 N5        30.13S VSB 1/4
MOREHEAD CITY  PTSUNNY   80  75  84 SE5       30.12R
KENANSVILLE    FOG       73  72  96 N5        30.15S VSB 1/2
NEW BERN       CLOUDY    77  73  87 N5        30.14R
ELIZABETH CITY PTSUNNY   76  72  87 NE8       30.17R

.........CENTRAL NC.........

CITY           SKY/WX    TMP DP  RH WIND       PRES   REMARKS
RALEIGH DURHAM CLOUDY    73  69  87 E3        30.18R FOG
ROCKY MOUNT    CLOUDY    74  71  91 NE7       30.17R
ROANOKE RAPIDS NOT AVBL
FAYETTEVILLE   CLOUDY    74  73  97 NE3       30.14S FOG
HOFFMAN        PTSUNNY   73  72  94 NE5       30.17R FOG

.........WESTERN NC.........

CITY           SKY/WX    TMP DP  RH WIND       PRES   REMARKS
CHARLOTTE      CLOUDY    72  69  90 NE3       30.17R
GREENSBORO     CLOUDY    70  70 100 NE6       30.19R FOG
HICKORY        NOT AVBL
BOONE          NOT AVBL
ASHEVILLE      NOT AVBL

.....................REST OF SOUTH CAROLINA.....................

.........EASTERN SC.........

CITY           SKY/WX    TMP DP  RH WIND       PRES   REMARKS
CHARLESTON     CLOUDY    77  73  88 NE5       30.10R FOG
BEAUFORT MCAS  FOG       75  74  96 CALM      30.10R VSB 1/4
HILTON HEAD    NOT AVBL

.........CENTRAL SC.........

CITY           SKY/WX    TMP DP  RH WIND       PRES   REMARKS
COLUMBIA       CLOUDY    76  72  87 E3        30.12R
ORANGEBURG     CLOUDY    75  73  93 NE5       30.12R FOG
SUMTER SHAW    FOG       73  73 100 E5        30.11R VSB 3/4

.........WESTERN SC.........

CITY           SKY/WX    TMP DP  RH WIND       PRES   REMARKS
GREENVILLE     NOT AVBL
ROCK HILL      CLOUDY    72  71  97 VRB3      30.17R
ANDERSON       CLOUDY    72  69  90 E6        30.16R
CLEMSON        NOT AVBL
GREENWOOD      CLOUDY    72  69  90 NE7       30.17R


...................COASTAL AND OFFSHORE REPORTS..................

................LOCAL PIERS AND NC RESERVE................


STATION/POSITION TIME  SKY/WX   TEMP    WIND        PRES    VSBY
                                AIR SEA DIR/SP/G
                 (UTC)          (F)     (DEG/KT/KT) (MB)    (MI)
JOHNY MRCER PIER 1200            76 83  100/  3/  4 1019.0R
NC RESRV MASNBRO 1100            74      60/  5     1019.0S
OCEAN CREST PIER 1200            76 83   30/  5/  6 1018.3R
SPRINGMAID  PIER 1200            73 82  340/  5/  5 1019.4S


................COASTAL AND OFFSHORE BUOYS................


STATION/POSITION TIME  SKY/WX   TEMP    WIND        PRES    VSBY
                                AIR SEA DIR/SP/G
                 (UTC)          (F)     (DEG/KT/KT) (MB)    (MI)
DIMNDSHOAL 41025 1200                   VRB  8/ 10  1020.9R
WVE H/P(F/S)=  3/ 8 WND WVE H/P(F/S)=  2/ 4 SWL H/P/D(F/S/D)=  3/120/ 8

CAPE LOOKOUT     1100            78      CALM  /  1 1019.7R
ONSLOW BAY 41036 1200            77 80  290/  8/ 10 1020.3R
WVE H/P(F/S)=  3/ 7 WND WVE H/P(F/S)=  2/ 4 SWL H/P/D(F/S/D)=  3/130/ 7

5 WRITEBCH 41038 1100            73 80                N/A
MASONBORO  41110 1200               80                N/A
WVE H/P(F/S)=  3/ 4 WND WVE H/P(F/S)=  3/ 4

WILM HARBR 41108 NOT AVBL
27WRITEBCH 41037 1100            74 80   70/  2/  4 1019.4R
FRYING PAN 41013 NOT AVBL
SUNST NRSH 41024 1100            76      40/ 10/ 12 1018.7
CAPRS NRSH 41029 1100            81     200/  2/  4   N/A
EDISTO     41004 1200            81 82  220/ 10/ 17 1018.3R
WVE H/P(F/S)=  3/ 7 WND WVE H/P(F/S)=  2/ 4 SWL H/P/D(F/S/D)=  2/ 7



..........OFFSHORE BUOYS BEYOND 100 NM OFFSHORE...........
.....IN A TRIANGLE---HAT TO BERMUDA TO BAHAMAS TO HAT.....


STATION/POSITION TIME  SKY/WX   TEMP    WIND        PRES    VSBY
                                AIR SEA DIR/SP/G
                 (UTC)          (F)     (DEG/KT/KT) (MB)    (MI)
150E HAT   41001 NOT AVBL
W BERMUDA  41048 1051            82 82  200/  8/  8 1022.9
WVE H/P(F/S)=  3/ 9 WND WVE H/P(F/S)=  2/ 3 SWL H/P/D(F/S/D)=  3/120/ 9

ATLANTIC S 41049 1136            81 83   70/  8/ 10 1023.1R
WVE H/P(F/S)=  2/ 8 WND WVE H/P(F/S)=  2/ 4 SWL H/P/D(F/S/D)=  2/140/ 8

E BAHAMAS  41046 1131            82 83  100/ 14/ 16 1020.5R
WVE H/P(F/S)=  4/ 6 WND WVE H/P(F/S)=  3/ 6 SWL H/P/D(F/S/D)=  2/110/ 8

NE BAHAMAS 41047 1123            83 84  130/ 12/ 14 1021.5R
WVE H/P(F/S)=  3/ 8 WND WVE H/P(F/S)=  2/ 6 SWL H/P/D(F/S/D)=  2/130/ 8

120E CANVRL41010 1200            82 83  140/ 14/ 17 1018.3R
WVE H/P(F/S)=  4/ 6 WND WVE H/P(F/S)=  3/ 6 SWL H/P/D(F/S/D)=  2/110/ 8


END


USA.gov is the U.S. government's official web portal to all federal, state and local government web resources and services.